Home   Weather   Ribeirão Prêto   Past weeks

Flag for Brazil Past Weather in Ribeirão Prêto, São Paulo, Brazil — Yesterday and Last 2 Weeks

Now
70 °F

Partly sunny.


Feels Like: 70 °F
Forecast: 69 / 80 °F
Wind: 8 mph from Southeast

Location: Leite Lopes / Ribeir

Current Time: Jan 20, 2017 at 10:24:07 am

Latest Report: Jan 20, 2017 at 9:00 am


Visibility: N/A

Pressure: 30.09 "Hg (28.23 "Hg at 549m altitude)

Humidity: 94%

Dew Point: 68 °F

Location of Ribeirão PrêtoLocation

Past Weather in Ribeirão Prêto — Graph

°F

Ribeirão Prêto Temperature Yesterday

Maximum temperature yesterday: 84 °F (at 3:00 pm)
Minimum temperature yesterday: 70 °F (at 1:00 am)
Average temperature yesterday: 75 °F

High & Low Weather Summary for the Past Weeks

 TemperatureHumidityPressure
High95 °F (Jan 7, 5:00 pm)100% (Jan 10, 7:00 am)30.09 "Hg (Jan 10, 7:00 am)
Low68 °F (Jan 12, 5:00 pm)34% (Jan 7, 5:00 pm)29.77 "Hg (Jan 14, 5:00 pm)
Average76 °F81%29.92 "Hg
* Reported Jan 5 9:00 am — Jan 20 9:00 am, Ribeirão Prêto, Weather by CustomWeather, © 2017

Note: Actual official high and low records may vary slightly from our data, if they occured in-between our weather recording intervals... More about our weather records

Advertising

Ribeirão Prêto Weather History for the Previous 24 Hours

Scroll right to see more
 ConditionsComfort  
Time TempWeatherWind HumidityBarometerVisibility
9:00 am
Fri, Jan 20
70 °FPartly sunny.8 mph94%30.09 "HgN/A
8:00 am68 °FOvercast.7 mph100%30.07 "HgN/A
7:00 am68 °FOvercast.5 mph94%30.07 "HgN/A
6:00 am68 °FMostly cloudy.2 mph94%30.04 "HgN/A
5:00 am68 °FLight rain. Overcast.6 mph94%30.04 "Hg6 mi
4:40 am68 °FLight rain. Mostly cloudy.6 mph94%30.04 "Hg5 mi
4:00 am68 °FLight rain. Mostly cloudy.10 mph94%30.07 "Hg3 mi
3:00 am70 °FLight rain. Low clouds.2 mph100%30.04 "Hg5 mi
2:00 am70 °FOvercast.No wind94%30.04 "HgN/A
1:00 am70 °FLight rain. Overcast.7 mph100%30.04 "HgN/A
12:00 am72 °FOvercast.7 mph94%30.07 "HgN/A
11:00 pm
Thu, Jan 19
72 °FLight rain. Overcast.9 mph94%30.07 "HgN/A
10:00 pm72 °FLight rain. Overcast.8 mph94%30.04 "HgN/A
9:00 pm73 °FLight rain. Overcast.6 mph94%30.01 "HgN/A
8:00 pm75 °FLight rain. Mostly cloudy.7 mph89%30.01 "HgN/A
7:00 pm77 °FOvercast.10 mph74%29.98 "HgN/A
5:00 pm82 °FMore clouds than sun.5 mph55%29.95 "HgN/A
4:00 pm81 °FLight rain. Broken clouds.9 mph66%29.95 "HgN/A
3:00 pm84 °FBroken clouds.7 mph55%29.95 "HgN/A
2:00 pm82 °FPartly sunny.7 mph62%29.98 "HgN/A
1:00 pm81 °FBroken clouds.5 mph70%30.01 "HgN/A
12:00 pm81 °FPartly sunny.5 mph66%30.04 "HgN/A
11:00 am79 °FMore clouds than sun.2 mph74%30.04 "HgN/A
10:00 am77 °FPartly sunny.3 mph79%30.01 "HgN/A
Weather by CustomWeather, © 2017

See weather overviewHow to use our weather pages